Location: *
(44.9308°N, 123.0197°W)
Time: 04:47:51
(UTC+00:00)

STARLINK-1065 - Pass Details

Date: 09 April 2020
Orbit: 548 x 549 km, 53.0° (Epoch: 24 May)

Event Time Altitude Azimuth Distance (km) Brightness Sun altitude
Exits shadow 12:07:36 29° 254° (WSW) 1,014 4.4 -15.6°
Maximum altitude 12:09:34 68° 330° (NNW) 594 3.7 -15.3°
Drops below altitude 10° 12:13:42 10° 54° (NE) 1,827 7.7 -14.7°
Sets 12:15:58 0° 57° (ENE) 2,724 9.1 -14.3°
